Regional Weather Roundup
Issued by NWS

Home | Current Version | Previous Version | Text Only | Print | Product List | Glossary Off
Versions: 1 2 3 4 5 6 7 8 9 10 11 12 13 14 15 16 17 18 19 20 21 22 23 24 25 26 27 28 29 30 31 32 33 34 35 36 37 38 39 40 41 42 43 44 45 46 47 48 49 50

574
ASUS43 KDMX 280601
RWRIA

WEATHER ROUNDUP FOR IOWA
NATIONAL WEATHER SERVICE DES MOINES IA
100 AM CDT SUN MAY 28 2017

NOTE: "FAIR" INDICATES FEW OR NO CLOUDS BELOW 12,000 FEET WITH NO
SIGNIFICANT WEATHER AND/OR OBSTRUCTIONS TO VISIBILITY.

* - THESE STATIONS ARE NOT NWS STATIONS...THUS NOT UNDER NWS
QUALITY CONTROL.  THEY ALSO DO NOT REPORT WEATHER SUCH
AS PRECIPITATION OR FOG.

IAZ001>003-012>014-020>022-031>034-043>046-280700-
   NORTHWEST IOWA

CITY           SKY/WX    TMP DP  RH WIND       PRES   REMARKS
CARROLL *      MOCLDY    59  57  94 W8        29.90S
CHEROKEE *     CLEAR     55  53  91 W5        29.90S
DENISON *      CLOUDY    57  52  82 CALM      29.94R
LE MARS *      PTCLDY    57  52  82 W7        29.91F
ORANGE CITY *  PTCLDY    55  54  94 W10       29.90F
SHELDON *      PTCLDY    55  52  88 SW8       29.88F
SIOUX CITY     LGT RAIN  57  52  83 W7        29.91F
6HR MIN TEMP:  57; 6HR MAX TEMP:  68; 6HR PCP: TRACE;

SPENCER        PTCLDY    56  53  90 W9        29.88F
6HR MIN TEMP:  54; 6HR MAX TEMP:  69; 6HR PCP:  0.01;

STORM LAKE *   CLEAR     55  52  88 W7        29.90F
$$

IAZ055>058-069>071-079>083-090>094-280700-
   SOUTHWEST IOWA

CITY           SKY/WX    TMP DP  RH WIND       PRES   REMARKS
ATLANTIC *     CLOUDY    59  55  88 NW6       29.90S
AUDUBON *      CLOUDY    57  54  88 NW7       29.91S
CLARINDA *     MOCLDY    57  57 100 CALM      29.93R
COUNCIL BLFS * PTCLDY    59  55  88 N8        29.92S
CRESTON *      CLEAR     57  57 100 N5        29.91R
HARLAN  *      CLEAR     57  55  94 NW6       29.94F
LAMONI         CLEAR     56  55  97 N7        29.88S
6HR MIN TEMP:  56; 6HR MAX TEMP:  73;

RED OAK *      CLOUDY    59  57  94 MISG      29.92R
SHENANDOAH *   MOCLDY    61  57  88 NW3       29.92R
$$

IAZ047>049-059>061-072>074-084-280700-
   CENTRAL IOWA

CITY           SKY/WX    TMP DP  RH WIND       PRES   REMARKS
AMES           CLEAR     53  52  96 CALM      29.87R
6HR MIN TEMP:  53; 6HR MAX TEMP:  65;

ANKENY *       CLEAR     54  52  94 CALM      29.87F
BOONE *        PTCLDY    55  55 100 W5        29.88R
CHARITON *     CLEAR     55  54  94 NW7       29.87S
DES MOINES     CLEAR     58  54  86 N3        29.86F
6HR MIN TEMP:  57; 6HR MAX TEMP:  67;

GRINNELL*      CLEAR     55  52  90 NW7       29.87R
KNOXVILLE *    CLEAR     55  54  94 NW8       29.85S
MARSHALLTOWN   CLEAR     55  54  96 W7        29.86R
6HR MIN TEMP:  54; 6HR MAX TEMP:  60; 6HR PCP:  0.03;

NEWTON *       CLEAR     55  52  88 NW5       29.86S
PELLA *        CLEAR     55  53  95 NW5       29.87S
PERRY *        MOCLDY    56  55  97 W6        29.89S
$$

IAZ004>006-015-016-023>025-035-036-280700-
   NORTH CENTRAL IOWA

CITY           SKY/WX    TMP DP  RH WIND       PRES   REMARKS
ALGONA *       CLOUDY    61  52  72 W6        29.88S
CLARION *      CLOUDY    55  54  94 W6        29.87F
ESTHERVILLE    CLOUDY    55  53  93 SW8       29.86S
6HR MIN TEMP:  55; 6HR MAX TEMP:  69; 6HR PCP: TRACE;

FORT DODGE *   CLOUDY    54  48  82 CALM      29.89F
MASON CITY     CLOUDY    59  50  72 SW3       29.88R
6HR MIN TEMP:  55; 6HR MAX TEMP:  68;

FOREST CITY *  CLOUDY    55  45  67 S5        29.87R
WEBSTER CITY * CLOUDY    57  54  88 W8        29.86S
IOWA FALLS *     N/A     55  53  93 W5        29.88R
$$

IAZ007>011-017>019-026>030-037>042-050>054-066-280700-
   NORTHEAST IOWA

CITY           SKY/WX    TMP DP  RH WIND       PRES   REMARKS
CEDAR RAPIDS   MOCLDY    59  59 100 N6        29.82S
6HR MIN TEMP:  58; 6HR MAX TEMP:  62; 6HR PCP: TRACE;

CHARLES CITY * MOCLDY    57  55  94 CALM      29.85S
CLINTON *      CLOUDY    60  59  96 NE6       29.80F
DECORAH *      MOCLDY    57  54  88 CALM      29.83S
DUBUQUE        CLOUDY    61  58  90 N3        29.82S
6HR MIN TEMP:  60; 6HR MAX TEMP:  67; 6HR PCP:  0.10;

MONTICELLO *   CLOUDY    61  61 100 NW5       29.82S
OELWEIN *      MOCLDY    59  57  94 CALM      29.85S
WATERLOO       CLEAR     56  53  90 NW3       29.84S
6HR MIN TEMP:  55; 6HR MAX TEMP:  62;

$$

IAZ064-065-067-068-078-280700-
   EAST CENTRAL IOWA

CITY           SKY/WX    TMP DP  RH WIND       PRES   REMARKS
DAVENPORT      CLOUDY    63  60  90 CALM      29.80F
6HR MIN TEMP:  61; 6HR MAX TEMP:  70;

IOWA CITY      CLOUDY    62  57  83 CALM      29.83S
6HR MIN TEMP:  60; 6HR MAX TEMP:  69;

MT. PLEASANT * CLEAR     60  60 100 N7        29.80F
MUSCATINE *    CLEAR     63  61  94 CALM      29.81S
QUAD CITIES    CLOUDY    63  60  90 W3        29.80S
6HR MIN TEMP:  62; 6HR MAX TEMP:  73;

$$

IAZ062-063-075>077-085>089-095>099-280700-
   SOUTHEAST IOWA

CITY           SKY/WX    TMP DP  RH WIND       PRES   REMARKS
BURLINGTON     CLOUDY    64  62  93 N5        29.79F
6HR MIN TEMP:  64; 6HR MAX TEMP:  73;

FAIRFIELD *    MOCLDY    61  59  94 NW6       29.82F FOG
FORT MADISON * CLEAR     63  63 100 CALM      29.80F
KEOKUK *       CLOUDY    64  63  94 N6        29.78F
OSKALOOSA *    MOCLDY    57  55  91 NW5       29.84F
OTTUMWA        CLOUDY    59  57  93 NW7       29.83F
6HR MIN TEMP:  58; 6HR MAX TEMP:  67;

WASHINGTON *   MOCLDY    59  59 100 NW7       29.82F
$$

ABBREVIATIONS USED IN REMARKS
   TC - TEMPERATURES IN CELSIUS
  WCI - WIND CHILL INDEX
   HX - HEAT INDEX
  VSB - VISIBILITY
$$





USA.gov is the U.S. government's official web portal to all federal, state and local government web resources and services.